[[{"header":{"parameterUnit":"m.s-1","parameterCategory":1,"la1":30.2991,"la2":30.254,"lo1":-89.0895,"lo2":-89.0444,"dy":0.0017,"dx":0.0017,"nx":28,"ny":28,"refTime":"2024-07-12T21:00:00:Z","depth":0,"parameterNumber":2,"parameterNumberName":"U-component_of_WINDS"},"data":[0,0,0,0,0,0,0,0,0,0,0,0,0,0,0,0,0,0,0,0,0,0,0,0,0,0,0,0,0,0,0,0,0,0,0,0,0,0,0,0,0,0,0,0,0,0,0,0,0,0,0,0,0,0,0,0,0,0,2.9154,2.9155,0,2.9294,2.9296,2.9298,2.9263,2.926,2.9258,2.9255,2.9402,2.9409,2.9415,0,0,0,0,0,0,0,0,0,0,0,0,0,2.8857,2.8862,2.9153,2.9155,2.9157,2.9294,2.9296,2.9298,2.9264,2.926,2.9257,2.9254,2.94,2.9408,2.9416,0,0,0,0,0,0,0,0,0,0,0,0,0,2.8991,2.8864,2.9153,2.9156,2.9158,2.9294,2.9296,2.9299,2.9264,2.926,2.9256,2.9252,2.9398,2.9407,2.9417,2.9559,0,0,2.9447,2.9451,0,0,0,0,0,0,0,0,2.8983,2.9002,2.9154,2.9156,2.9158,2.9257,2.9246,2.9386,2.9265,2.9224,2.9255,2.925,2.9358,2.937,2.9406,2.9566,2.9573,2.9447,2.9453,2.9457,2.946,0,0,0,0,0,0,0,2.8974,2.8995,2.9209,2.9156,2.9159,2.9151,2.9166,2.9272,2.9312,2.9227,2.9225,2.9242,2.9358,2.9397,2.9409,2.9575,2.9447,2.9456,2.9462,2.9466,2.9858,2.9863,0,0,0,0,0,0,2.8962,2.8988,2.9205,2.9213,2.9059,2.916,2.9176,2.9229,2.9311,2.9319,2.9245,2.924,2.9382,2.9398,2.9414,2.9586,2.9457,2.9467,2.9472,2.9854,2.986,2.9864,0,0,0,0,0,0,2.8956,2.8982,2.9199,2.91,2.9127,2.9169,2.923,2.9234,2.9273,2.9325,2.9332,2.9277,2.9379,2.94,2.9523,2.959,2.9471,2.948,2.9849,2.9856,2.9862,2.993,0,0,0,0,0,0,2.8948,2.898,2.9034,2.9102,2.9133,2.9305,2.9234,2.924,2.9289,2.9284,2.9357,2.9365,2.9378,2.9509,2.9533,2.9601,2.9487,2.9843,2.9852,2.986,2.9922,2.9938,2.9952,0,0,0,0,0,2.8937,2.9048,2.9037,2.9063,2.9201,2.9309,2.9327,2.9339,2.9295,2.935,2.9383,2.9362,2.9579,2.9522,2.9548,2.9621,2.9838,2.9849,2.9859,2.9915,2.9935,2.9952,0,0,0,0,0,0,2.8989,2.9057,2.9045,2.9181,2.9239,2.9303,2.9372,2.936,2.9432,2.9424,2.9436,2.9453,2.9578,2.9612,2.9547,2.9763,2.9703,2.9719,2.9736,2.9755,2.977,2.9759,2.9495,0,0,0,0,0,2.9016,2.9097,2.9153,2.9267,2.9297,2.933,2.9378,2.9382,2.9443,2.9467,2.951,2.9571,2.9652,2.9706,2.9784,2.9927,2.9942,2.999,3.0005,3.0018,3.0031,3.0109,3.013,2.9898,2.9898,2.9898,0,0,2.9072,2.912,2.9171,2.9279,2.9324,2.9409,2.9351,2.9443,2.9506,2.9482,2.9599,2.9633,2.9702,2.9835,2.9896,2.9867,3.0099,3.0031,3.004,3.0047,3.0122,3.0144,3.0163,2.9906,2.9904,2.9903,0,0,2.9219,2.9263,2.9363,2.941,2.9479,2.95,2.9524,2.959,2.961,2.9728,2.9712,2.9788,2.9928,2.9978,3.0022,3.0187,3.017,3.0212,3.0291,3.0367,3.0385,3.0401,3.046,3.048,3.0226,3.0226,3.0226,0,2.9281,2.9406,2.9416,2.951,2.9558,2.9539,2.964,2.9685,2.9777,2.9811,2.9778,2.9953,2.9999,3.0142,3.0183,3.0219,3.0247,3.0203,3.0381,3.0398,3.0413,3.0469,3.0491,3.023,3.023,3.0229,3.0229,0,2.9479,2.9566,2.9639,2.9727,2.9783,2.988,2.9905,2.9961,2.9961,2.9986,3.0106,3.016,3.0248,3.0283,3.0284,3.0428,3.0407,3.0378,3.0317,3.044,3.0492,3.0514,3.0237,3.0235,3.0234,3.0233,0,0,2.9661,2.9752,2.9779,2.9818,2.9893,2.9961,3.0058,3.0143,3.0191,3.0255,3.0336,3.0456,3.0428,3.0478,3.0484,3.0551,3.0677,3.0513,3.0515,3.0541,3.0838,3.0859,3.0884,3.0667,3.0671,3.0675,3.0832,0,2.9813,2.9981,2.9993,3.0146,3.0226,3.021,3.0294,3.0349,3.0375,3.0449,3.0478,3.0562,3.052,3.0549,3.0614,3.0648,3.0737,3.0637,3.0743,3.0747,3.0725,3.0911,3.0934,3.108,3.0853,3.0856,3.0859,0,3.0013,3.0082,3.0242,3.0305,3.0339,3.0414,3.0493,3.0563,3.0626,3.064,3.0696,3.0693,3.0792,3.0729,3.0867,3.0798,3.0843,3.0866,3.0872,3.0881,3.0809,3.0925,3.1127,3.1148,3.0891,3.0889,3.0886,0,3.0129,3.0262,3.0374,3.0409,3.0485,3.0538,3.0573,3.0631,3.0682,3.0751,3.0784,3.0865,3.0909,3.0972,3.0991,3.0944,3.1128,3.1067,3.1143,3.1143,3.1182,3.1179,3.1393,3.1212,3.1212,3.1212,3.1211,0,3.0297,3.0395,3.0427,3.0496,3.0606,3.0619,3.0728,3.0759,3.0812,3.0887,3.0879,3.095,3.0972,3.1047,3.1064,3.1175,3.1195,3.121,3.1212,3.121,3.1208,3.1238,3.1228,3.1218,3.1216,3.1215,3.1214,0,3.0444,3.0469,3.0591,3.0653,3.0671,3.0749,3.0803,3.087,3.0894,3.099,3.1014,3.1053,3.1141,3.1166,3.1273,3.1284,3.1414,3.1409,3.1392,3.1392,3.1467,3.1459,3.1707,3.174,3.1539,3.154,3.1542,0,3.0549,3.0624,3.0694,3.0743,3.078,3.086,3.0911,3.0927,3.0981,3.1058,3.1116,3.1202,3.1273,3.1415,3.1453,3.1535,3.153,3.1612,3.1543,3.1537,3.1531,3.1525,3.1533,3.1624,3.1626,3.1628,3.163,0,3.0733,3.0741,3.0814,3.0892,3.0953,3.1016,3.1075,3.1117,3.1141,3.1202,3.1292,3.1346,3.1454,3.1541,3.1623,3.166,3.165,3.1651,3.1673,3.167,3.1657,3.1664,3.1427,3.1645,3.1644,3.1642,3.1642,3.1641,3.0862,3.0927,3.0986,3.1068,3.1115,3.1171,3.1236,3.1269,3.1343,3.1431,3.1437,3.1534,3.1595,3.1705,3.1746,3.1822,3.1798,3.183,3.1838,3.1846,3.1851,3.1646,3.1838,3.1837,3.1837,3.1836,3.1836,0,3.1044,3.1081,3.1156,3.1239,3.1304,3.1287,3.1353,3.1408,3.1493,3.155,3.1619,3.1722,3.1806,3.1851,3.1934,3.1987,3.1984,3.2008,3.2004,3.2013,3.1868,3.184,3.2009,3.2009,3.2009,3.2009,3.2009,3.2009,3.1146,3.1256,3.1272,3.1405,3.1441,3.1535,3.1574,3.1626,3.1671,3.1786,3.1855,3.1883,3.1936,3.2023,3.21,3.2111,3.2142,3.2169,3.2177,3.2041,3.2023,3.2006,3.198,3.2175,3.2176,3.2315,3.2316,3.2317]},{"header":{"parameterUnit":"m.s-1","parameterCategory":1,"la1":30.2991,"la2":30.254,"lo1":-89.0895,"lo2":-89.0444,"dy":0.0017,"dx":0.0017,"nx":28,"ny":28,"refTime":"2024-07-12T21:00:00:Z","depth":0,"parameterNumber":3,"parameterNumberName":"V-component_of_WINDS"},"data":[0,0,0,0,0,0,0,0,0,0,0,0,0,0,0,0,0,0,0,0,0,0,0,0,0,0,0,0,0,0,0,0,0,0,0,0,0,0,0,0,0,0,0,0,0,0,0,0,0,0,0,0,0,0,0,0,0,0,0.4458,0.4458,0,0.4477,0.4477,0.4478,0.4471,0.447,0.447,0.447,0.4492,0.4493,0.4494,0,0,0,0,0,0,0,0,0,0,0,0,0,0.4416,0.4417,0.4458,0.4458,0.4458,0.4477,0.4477,0.4478,0.4471,0.447,0.447,0.4469,0.4491,0.4493,0.4494,0,0,0,0,0,0,0,0,0,0,0,0,0,0.4435,0.4417,0.4458,0.4457,0.4457,0.4477,0.4477,0.4478,0.4471,0.447,0.447,0.4469,0.4491,0.4493,0.4494,0.4516,0,0,0.4499,0.4499,0,0,0,0,0,0,0,0,0.4434,0.4436,0.4457,0.4457,0.4457,0.4471,0.4471,0.4491,0.4471,0.4466,0.447,0.4469,0.4486,0.4487,0.4493,0.4517,0.4518,0.4499,0.45,0.45,0.4501,0,0,0,0,0,0,0,0.4432,0.4435,0.4465,0.4457,0.4457,0.4456,0.4458,0.4475,0.4479,0.4466,0.4466,0.4468,0.4486,0.4491,0.4493,0.4519,0.4499,0.45,0.4501,0.4502,0.4562,0.4563,0,0,0,0,0,0,0.4431,0.4434,0.4465,0.4466,0.4444,0.4458,0.446,0.4467,0.4479,0.448,0.4469,0.4468,0.4489,0.4491,0.4494,0.452,0.45,0.4502,0.4503,0.4561,0.4562,0.4563,0,0,0,0,0,0,0.443,0.4434,0.4464,0.445,0.4454,0.4459,0.4467,0.4468,0.4474,0.4481,0.4482,0.4473,0.4489,0.4492,0.451,0.4521,0.4502,0.4504,0.456,0.4562,0.4563,0.4574,0,0,0,0,0,0,0.4429,0.4433,0.4442,0.445,0.4455,0.448,0.4468,0.4469,0.4476,0.4475,0.4486,0.4487,0.4488,0.4508,0.4512,0.4523,0.4505,0.456,0.4561,0.4562,0.4573,0.4575,0.4578,0,0,0,0,0,0.4427,0.4445,0.4442,0.4446,0.4465,0.4481,0.4483,0.4484,0.4477,0.4485,0.449,0.4486,0.4519,0.451,0.4514,0.4526,0.4559,0.4561,0.4562,0.4572,0.4575,0.4577,0,0,0,0,0,0,0.4438,0.4446,0.4443,0.4464,0.4471,0.4479,0.449,0.4487,0.4498,0.4497,0.4498,0.45,0.452,0.4525,0.4514,0.4548,0.4538,0.4541,0.4544,0.4547,0.4549,0.4548,0.4506,0,0,0,0,0,0.4443,0.4454,0.4461,0.4478,0.4482,0.4486,0.4493,0.4492,0.4501,0.4504,0.451,0.4519,0.4531,0.4539,0.4551,0.4573,0.4575,0.4583,0.4585,0.4587,0.459,0.4601,0.4605,0.4568,0.4568,0.4568,0,0,0.4453,0.4459,0.4466,0.4481,0.4487,0.4499,0.4489,0.4502,0.4511,0.4507,0.4524,0.4529,0.4539,0.4559,0.4568,0.4564,0.46,0.4589,0.4591,0.4592,0.4603,0.4607,0.461,0.4569,0.4569,0.4569,0,0,0.4478,0.4483,0.4498,0.4504,0.4513,0.4515,0.4518,0.4526,0.4529,0.4546,0.4543,0.4554,0.4575,0.4582,0.4588,0.4614,0.4611,0.4618,0.4631,0.4642,0.4645,0.4647,0.4657,0.466,0.462,0.462,0.462,0,0.449,0.4508,0.4507,0.452,0.4527,0.4521,0.4537,0.4543,0.4555,0.456,0.4554,0.458,0.4586,0.4608,0.4614,0.4619,0.4623,0.4617,0.4644,0.4647,0.4649,0.4658,0.4662,0.4621,0.4621,0.4621,0.462,0,0.4522,0.4534,0.4545,0.4556,0.4564,0.4578,0.4579,0.4587,0.4586,0.4588,0.4606,0.4613,0.4626,0.4631,0.463,0.4652,0.4649,0.4644,0.4634,0.4654,0.4662,0.4665,0.4622,0.4621,0.4621,0.4621,0,0,0.4555,0.4564,0.4568,0.4573,0.4581,0.4591,0.4605,0.4616,0.4623,0.4632,0.4644,0.4661,0.4655,0.4663,0.4663,0.4672,0.4692,0.4666,0.4666,0.4671,0.4717,0.4721,0.4725,0.469,0.469,0.4691,0.4716,0,0.4581,0.4605,0.4604,0.4626,0.4637,0.4632,0.4644,0.465,0.4653,0.4663,0.4666,0.4678,0.467,0.4674,0.4684,0.4688,0.4701,0.4686,0.4701,0.4702,0.4699,0.4729,0.4734,0.4757,0.4719,0.4719,0.472,0,0.4614,0.4623,0.4646,0.4652,0.4656,0.4667,0.4677,0.4687,0.4694,0.4695,0.4702,0.47,0.4714,0.4704,0.4723,0.4713,0.4719,0.4721,0.4722,0.4724,0.4713,0.4732,0.4764,0.4768,0.4725,0.4725,0.4724,0,0.4637,0.4654,0.4669,0.4674,0.4681,0.4688,0.4692,0.4698,0.4705,0.4714,0.4718,0.4729,0.4735,0.4743,0.4744,0.4736,0.4763,0.4753,0.4765,0.4765,0.4772,0.4771,0.4806,0.4775,0.4775,0.4775,0.4775,0,0.4666,0.468,0.4679,0.4689,0.4705,0.4704,0.472,0.4722,0.4728,0.4738,0.4734,0.4744,0.4745,0.4755,0.4756,0.4772,0.4774,0.4776,0.4776,0.4777,0.4776,0.4781,0.478,0.4776,0.4776,0.4775,0.4775,0,0.4694,0.4694,0.4711,0.4716,0.4717,0.4729,0.4733,0.4743,0.4744,0.4757,0.476,0.4763,0.4774,0.4776,0.479,0.479,0.4809,0.4808,0.4807,0.4807,0.4819,0.4818,0.4858,0.4863,0.4828,0.4829,0.4829,0,0.4713,0.4723,0.4729,0.4735,0.4739,0.4749,0.4755,0.4754,0.4761,0.4769,0.4777,0.4788,0.4797,0.4816,0.482,0.483,0.4829,0.4842,0.4831,0.483,0.4829,0.4829,0.483,0.4845,0.4845,0.4845,0.4846,0,0.4746,0.4745,0.4754,0.4762,0.477,0.4777,0.4783,0.4789,0.4788,0.4796,0.4807,0.4814,0.4827,0.4838,0.4848,0.4852,0.4849,0.4849,0.4852,0.4853,0.4852,0.4853,0.4813,0.4848,0.4848,0.4848,0.4848,0.4848,0.477,0.4779,0.4784,0.4794,0.4798,0.4804,0.4813,0.4815,0.4824,0.4834,0.4833,0.4845,0.4851,0.4864,0.4869,0.4879,0.4875,0.488,0.4881,0.4882,0.4883,0.485,0.4881,0.4881,0.4881,0.4881,0.4881,0,0.4803,0.4806,0.4815,0.4823,0.4831,0.4825,0.4832,0.4839,0.485,0.4855,0.4864,0.4876,0.4887,0.489,0.49,0.4908,0.4906,0.491,0.491,0.4911,0.4887,0.4883,0.4911,0.4911,0.4911,0.4911,0.4911,0.4911,0.4821,0.4836,0.4836,0.4853,0.4855,0.4867,0.4871,0.4876,0.4881,0.4895,0.4903,0.4905,0.4909,0.492,0.4929,0.493,0.4934,0.4939,0.4939,0.4916,0.4913,0.491,0.4906,0.4939,0.4939,0.4962,0.4962,0.4963]}]]